NOAA 6 (11416 NORAD) Tracking and Keplerian Element Data

This shows tracking and keplerian element data for the satellite.

Feedback or suggestion? Click here.




ElementValue
Catalog11416
NameNOAA 6
Epoch Orbit37948
Epoch Day34.92159649
Epoch Year2025
RAAN61.7379
Inclination98.613
Eccentricity0.0008921
Argument of Perigee297.8136
Mean Anonmoly62.2145
Mean Motion14.34992743
Decay Rate6.87E-06
L11 11416U 79057A 25034.92159649 .00000687 00000+0 25667-3 0 9999
L22 11416 98.6130 61.7379 0008921 297.8136 62.2145 14.34992743379488



Live tracking and technical data element details for NOAA 6 (NORAD 11416). NOAA 6 can be tracked NOW for your location showing map with azimuth and elevation plus other details from your city location.







IsCatalogInMostPopularTable: catalog: 11416, numindb: 1419
Update: records affected: 1



GetName: 11416 NOAA 6

Hit Count: updated at: Mon, 17 Nov 2025 19:28:24 GMT